TimeMST,TemperatureF,Dew PointF,Humidity,Sea Level PressureIn,VisibilityMPH,Wind Direction,Wind SpeedMPH,Gust SpeedMPH,PrecipitationIn,Events,Conditions,WindDirDegrees,DateUTC
12:53 AM,16.0,12.0,84,30.03,10.0,WSW,11.5,-,0.00,,Overcast,250,2013-02-26 07:53:00
1:53 AM,14.0,10.0,84,30.04,10.0,WSW,8.1,-,0.00,,Mostly Cloudy,240,2013-02-26 08:53:00
2:53 AM,10.0,7.0,87,30.04,10.0,WSW,12.7,-,N/A,,Clear,250,2013-02-26 09:53:00
3:53 AM,10.0,6.1,84,30.04,10.0,WSW,8.1,-,N/A,,Clear,240,2013-02-26 10:53:00
4:53 AM,10.9,8.1,88,30.05,10.0,SW,8.1,-,N/A,,Overcast,230,2013-02-26 11:53:00
5:53 AM,12.9,9.0,84,30.06,9.0,SW,5.8,-,N/A,,Overcast,230,2013-02-26 12:53:00
6:53 AM,12.9,9.0,84,30.08,10.0,WSW,9.2,-,N/A,,Overcast,240,2013-02-26 13:53:00
7:33 AM,10.4,8.6,92,29.96,10.0,WSW,6.9,-,0.00,,Overcast,250,2013-02-26 14:33:00
7:53 AM,12.9,10.0,88,30.13,6.0,West,6.9,-,0.00,,Overcast,260,2013-02-26 14:53:00
8:15 AM,14.0,10.4,86,29.98,5.0,West,6.9,-,0.00,Snow,Light Snow,270,2013-02-26 15:15:00
8:32 AM,15.8,10.4,79,29.99,10.0,WNW,5.8,-,0.00,,Overcast,290,2013-02-26 15:32:00
8:53 AM,18.0,10.0,71,30.14,10.0,NW,11.5,-,0.00,,Overcast,320,2013-02-26 15:53:00
9:19 AM,17.6,10.4,73,30.00,10.0,NNW,11.5,-,N/A,,Overcast,340,2013-02-26 16:19:00
9:53 AM,18.0,9.0,68,30.17,10.0,NNW,12.7,-,N/A,,Mostly Cloudy,330,2013-02-26 16:53:00
10:53 AM,19.9,10.0,65,30.16,10.0,NNW,15.0,-,N/A,,Clear,340,2013-02-26 17:53:00
11:53 AM,21.9,10.0,60,30.17,10.0,NNW,11.5,-,N/A,,Clear,330,2013-02-26 18:53:00
12:38 PM,21.2,12.2,68,30.05,10.0,NW,6.9,-,N/A,,Mostly Cloudy,320,2013-02-26 19:38:00
12:53 PM,21.9,12.9,68,30.18,9.0,NNW,12.7,-,N/A,,Overcast,340,2013-02-26 19:53:00
1:15 PM,23.0,12.2,63,30.05,10.0,NNW,10.4,-,N/A,,Scattered Clouds,340,2013-02-26 20:15:00
1:53 PM,23.0,10.0,58,30.19,10.0,NNW,10.4,-,N/A,,Partly Cloudy,340,2013-02-26 20:53:00
2:53 PM,21.9,10.9,63,30.23,10.0,NNW,13.8,-,N/A,,Clear,340,2013-02-26 21:53:00
3:45 PM,19.4,10.4,68,30.08,10.0,NNW,17.3,-,N/A,,Overcast,340,2013-02-26 22:45:00
3:53 PM,21.0,10.0,63,30.25,10.0,North,19.6,-,N/A,,Mostly Cloudy,350,2013-02-26 22:53:00
4:01 PM,21.2,10.4,63,30.09,10.0,NNW,18.4,-,N/A,,Scattered Clouds,340,2013-02-26 23:01:00
4:11 PM,19.4,12.2,74,30.09,10.0,NNW,17.3,-,N/A,,Mostly Cloudy,330,2013-02-26 23:11:00
4:53 PM,19.9,12.9,74,30.27,9.0,NNW,12.7,-,0.00,,Overcast,330,2013-02-26 23:53:00
5:53 PM,16.0,9.0,74,30.30,10.0,NNW,5.8,-,N/A,,Scattered Clouds,330,2013-02-27 00:53:00
6:53 PM,15.1,8.1,74,30.32,10.0,NNW,3.5,-,N/A,,Scattered Clouds,330,2013-02-27 01:53:00
7:03 PM,15.8,8.6,73,30.14,10.0,NW,3.5,-,N/A,,Mostly Cloudy,320,2013-02-27 02:03:00
8:42 PM,12.2,6.8,79,30.18,10.0,WSW,4.6,-,0.00,,Overcast,250,2013-02-27 03:42:00
8:53 PM,12.0,6.1,77,30.36,10.0,WSW,4.6,-,0.00,,Overcast,240,2013-02-27 03:53:00
9:25 PM,10.4,5.0,79,30.18,10.0,WSW,5.8,-,N/A,,Mostly Cloudy,250,2013-02-27 04:25:00
9:32 PM,10.4,5.0,79,30.19,10.0,SW,4.6,-,N/A,,Scattered Clouds,230,2013-02-27 04:32:00
9:53 PM,9.0,3.9,80,30.38,10.0,SSW,5.8,-,N/A,,Clear,200,2013-02-27 04:53:00
10:53 PM,8.1,3.0,80,30.39,10.0,WSW,6.9,-,N/A,,Scattered Clouds,250,2013-02-27 05:53:00
11:53 PM,10.9,5.0,77,30.37,10.0,SW,3.5,-,N/A,,Clear,230,2013-02-27 06:53:00